Regional Weather Roundup
Issued by NWS

Home | Current Version | Previous Version | Graphics & Text | Print | Product List | Glossary Off
Versions: 1 2 3 4 5 6 7 8 9 10 11 12 13 14 15 16 17 18 19 20 21 22 23 24 25 26 27 28 29 30 31 32 33 34 35 36 37 38 39 40 41 42 43 44 45 46 47 48 49 50

000
ASUS43 KTOP 290308
RWRKS

WEATHER ROUNDUP FOR KANSAS
NATIONAL WEATHER SERVICE GOODLAND KS
900 PM CST WED JAN 28 2015

NOTE:  "FAIR" INDICATES FEW OR NO CLOUDS BELOW 12,000 FEET WITH NO
SIGNIFICANT WEATHER AND/OR OBSTRUCTIONS TO VISIBILITY.

KSZ001>006-013>018-027>032-041>047-290400-
NORTHWEST KANSAS

CITY           SKY/WX    TMP DP  RH WIND       PRES   REMARKS
GOODLAND       CLEAR     44  35  70 NW17G26   30.16R
HAYS           CLEAR     57  27  30 NW20G26   30.01R
HILL CITY      CLEAR     54  29  38 NW15      30.05R
RUSSELL        CLEAR     56  31  38 NW20G26   29.97R
$$

KSZ061>065-074>080-084>089-290400-
SOUTHWEST KANSAS

CITY           SKY/WX    TMP DP  RH WIND       PRES   REMARKS
DODGE CITY     CLEAR     55  31  39 NW17      30.05R
ELKHART          N/A     54  27  35 N8          N/A
GARDEN CITY    FAIR      52  32  46 N18       30.09R
LIBERAL        PTCLDY    48  28  46 NW12      30.12R
PRATT          PTCLDY    54  32  43 NW13      29.99R
$$

KSZ066>073-081>083-090>101-290400-
SOUTHEAST KANSAS

CITY           SKY/WX    TMP DP  RH WIND       PRES   REMARKS
CHANUTE        CLOUDY    59  39  47 SW8       29.84R
COFFEYVILLE    CLOUDY    62  39  42 SW9       29.87R
HUTCHINSON     CLEAR     50  31  48 NW10      29.92R
MEDICINE LODGE   N/A     58  31  35 NW8       29.97R
NEWTON         PTCLDY    57  30  35 W13       29.92R
PARSONS        CLOUDY    61  40  45 SW6       29.87R
WICHITA INTL   MOCLDY    55  33  43 W10       29.91R
WICHITA JABRA  MOCLDY    60  32  34 W12       29.90R
WICHITA MCCONL CLOUDY    60  33  36 W7        29.91R
WINFIELD       CLOUDY    60  26  27 SW14      29.92R
$$

KSZ007>012-019>026-033>040-048>060-102>105-290400-
NORTHEAST KANSAS

CITY           SKY/WX    TMP DP  RH WIND       PRES   REMARKS
CONCORDIA      CLEAR     57  31  37 NW17G24   29.90R
EMPORIA        MOCLDY    60  34  37 W13       29.82R
LAWRENCE       CLOUDY    48  33  56 W3        29.77R
MANHATTAN      CLEAR     59  34  39 W8        29.83R
MARYSVILLE     CLEAR     54  34  47 NW15G22   29.83R
OLATHE IND     MOCLDY    55  38  52 SW7       29.79R
OLATHE EXE     PTCLDY    60  38  43 SW7       29.78R
SALINA         CLEAR     60  33  36 NW18      29.90R
TOPEKA BILLARD MOCLDY    57  34  41 NW5       29.79R
TOPEKA FORBES  MOCLDY    56  34  43 SW9       29.78R
$$



USA.gov is the U.S. government's official web portal to all federal, state and local government web resources and services.